Retour au catalogue

SOLRAD 1

GREB

ActifScienceLEO
NORAD 46·PAYLOAD·🇺🇸 United States

Lancé Jun 22, 1960 depuis Cape Canaveral Space Force Station

Loading…

Prochains Passages (prochaines 24 heures)

TLE

FraisSource: Space-Track

Époque: Sep 14, 2026, 14:52 UTC

1 00046U 60007B   26257.62010077  .00000739  00000-0  15234-3 0  9995
2 00046  66.6903 344.3847 0200257 227.6067 130.7949 14.54979999470012

Suivez SOLRAD 1 en temps réel avec AllMySat

Download on the App Store